This is the latest recevied weather packets stored in our database for station/object K0QJ. If no packets are shown the sender has not sent any weather packets the latest 10 day(s).
| Time | Temp. | Humidity | Pressure | Rain* | Wind** | Luminosity | Snow |
|---|---|---|---|---|---|---|---|
| 1778103040 | 15° C | 38% | 1016.2 hPa | 0 mm | - | 42 W/m² | - |
| 1778102736 | 15.56° C | 34% | 1016.2 hPa | 0 mm | - | 60 W/m² | - |
| 1778102431 | 15.56° C | 35% | 1016.2 hPa | 0 mm | - | 44 W/m² | - |
| 1778102127 | 15.56° C | 36% | 1016.4 hPa | 0 mm | - | 46 W/m² | - |
| 1778101825 | 15° C | 36% | 1016.2 hPa | 0 mm | - | 44 W/m² | - |
| 1778101521 | 15.56° C | 37% | 1016.5 hPa | 0 mm | - | 95 W/m² | - |
| 1778101218 | 15.56° C | 36% | 1016.5 hPa | 0 mm | - | 355 W/m² | - |
| 1778100915 | 15.56° C | 37% | 1016.8 hPa | 0 mm | - | 102 W/m² | - |
| 1778100610 | 15.56° C | 34% | 1016.8 hPa | 0 mm | - | 49 W/m² | - |
| 1778100309 | 15.56° C | 37% | 1016.9 hPa | 0 mm | - | 60 W/m² | - |
| 1778100005 | 16.11° C | 36% | 1016.7 hPa | 0 mm | - | 588 W/m² | - |
| 1778099703 | 15.56° C | 38% | 1016.9 hPa | 0 mm | - | 586 W/m² | - |
| 1778099399 | 15.56° C | 35% | 1016.9 hPa | 0 mm | - | 606 W/m² | - |
| 1778099097 | 15.56° C | 34% | 1017 hPa | 0 mm | - | 626 W/m² | - |
| 1778098792 | 15.56° C | 38% | 1017.2 hPa | 0 mm | - | 652 W/m² | - |
| 1778098491 | 15.56° C | 38% | 1016.9 hPa | 0 mm | - | 699 W/m² | - |
| 1778098187 | 15.56° C | 35% | 1017.3 hPa | 0 mm | - | 730 W/m² | - |
| 1778097883 | 15° C | 35% | 1017.1 hPa | 0 mm | - | 719 W/m² | - |
| 1778097580 | 15.56° C | 39% | 1017.1 hPa | 0 mm | - | 744 W/m² | - |
| 1778097277 | 15.56° C | 37% | 1017.3 hPa | 0 mm | - | 733 W/m² | - |
| 1778096973 | 15° C | 37% | 1017.4 hPa | 0 mm | - | 736 W/m² | - |
| 1778096671 | 15.56° C | 36% | 1017.4 hPa | 0 mm | - | 695 W/m² | - |
| 1778096368 | 15° C | 35% | 1017.4 hPa | 0 mm | - | 639 W/m² | - |
| 1778096065 | 16.11° C | 35% | 1017.3 hPa | 0 mm | - | 634 W/m² | - |
| 1778095761 | 16.11° C | 37% | 1017.6 hPa | 0 mm | - | 649 W/m² | - |
* Rain latest hour (hover to see other rain measurements)
** Current wind speed in m/s (hover to see current wind gust speed)